RH
16 16 15 14 14 14 14 15 16 16 16 17 14 11 11 12 12 11 9 8 8 9 9 9 9 8 7 7 6 6 5 5 5 5 6 7 7 7 6 10 11 9 9 10 11 12 14 16 17
17 18 19 19 18 18 19 18 17 15 15 16 15 14 14 15 13 13 11 9 9 8 9 10 10 10 9 8 8 7 6 6 6 5 5 6 6 6 6 7 8 12 12 12 11 11 13 15 16
19 19 19 20 18 18 19 18 17 16 15 15 16 16 17 18 19 19 17 13 12 11 10 10 10 10 9 9 8 8 7 6 6 6 6 7 8 8 8 9 9 10 11 12 13 14 15 17 23
24 23 23 23 23 28 24 20 17 15 14 14 14 14 14 17 18 29 25 20 19 18 19 15 12 10 9 8 8 9 8 7 7 7 6 8 9 9 10 10 10 9 10 11 13 14 16 18 21
27 28 26 26 30 27 24 21 18 16 16 16 16 16 18 21 22 29 36 31 32 26 24 16 15 12 12 11 10 11 9 9 9 8 10 14 17 27 41 41 24 10 11 12 14 18 21 21 22
31 30 38 36 31 24 19 20 19 18 18 18 18 19 15 20 26 40 41 43 38 28 24 20 18 16 14 13 13 12 14 16 20 69 87 97 100 94 66 44 37 24 18 20 22 36 63 61 44
36 36 40 40 29 24 24 19 18 18 18 20 22 22 19 17 26 45 62 53 43 40 30 24 22 17 17 17 15 14 16 27 99 100 100 100 100 96 57 78 61 39 39 42 62 75 54 44 40
37 39 45 54 43 31 24 20 25 22 21 23 23 30 29 21 21 31 66 93 58 47 36 25 26 19 19 18 17 16 21 100 100 100 100 100 82 96 70 68 90 96 81 76 51 51 51 35 55
57 47 55 49 37 33 24 27 28 28 28 32 32 28 40 30 29 34 53 100 77 53 38 29 28 23 21 20 20 16 84 100 100 100 100 96 89 70 60 52 77 60 44 44 41 44 61 47 60
70 57 62 61 50 42 36 31 26 29 28 38 31 29 32 49 40 35 46 89 100 71 42 36 32 24 20 20 22 24 99 100 100 100 100 97 76 60 42 46 49 46 48 58 56 71 73 85 81
71 57 74 80 63 51 44 38 28 28 36 27 32 43 36 39 58 75 38 53 100 94 48 40 33 28 18 17 22 49 99 100 100 100 82 86 67 45 41 41 51 46 45 50 75 87 77 100 100
89 73 99 74 98 93 58 52 37 34 47 31 36 35 38 33 35 60 81 42 64 100 53 50 37 28 19 17 23 62 98 100 100 100 100 84 92 55 48 49 64 55 41 51 84 72 76 99 100
100 100 99 100 100 88 71 77 75 82 49 50 36 39 35 39 30 36 82 62 54 100 72 60 40 31 22 20 23 70 92 100 100 100 100 97 88 81 57 79 68 62 43 52 75 62 50 62 91
100 100 100 84 84 96 65 96 96 98 71 52 41 40 39 47 39 27 47 67 50 89 80 66 47 37 24 21 22 61 99 99 100 100 95 100 100 100 66 64 100 86 58 73 63 45 54 47 87
100 100 100 75 100 82 73 100 99 91 70 56 54 66 54 47 50 26 31 36 45 76 83 68 59 40 24 21 26 81 93 100 100 100 98 100 100 90 100 83 94 66 96 88 69 57 56 34 75
97 86 100 100 90 100 54 92 100 76 56 63 74 80 48 49 35 26 28 32 37 67 100 82 67 38 25 21 24 87 100 88 100 100 89 100 100 100 100 82 59 50 86 86 62 58 58 50 58
100 100 100 91 84 72 44 69 100 64 57 76 85 69 44 38 30 25 25 28 33 68 100 93 82 36 24 21 23 99 100 100 99 100 100 99 100 100 100 98 66 45 67 84 55 58 84 79 72
100 98 92 100 100 70 62 73 86 54 52 85 78 58 49 37 30 23 24 30 35 55 100 100 82 34 23 22 19 90 100 100 100 95 97 83 82 100 100 100 81 51 98 100 68 56 54 82 88
84 89 100 100 85 52 52 48 59 59 86 97 63 50 48 32 25 23 24 31 41 58 100 100 81 32 25 26 20 71 100 100 100 87 90 100 100 100 100 99 89 94 100 98 72 38 52 82 93
93 100 100 100 99 43 62 48 60 82 100 81 65 50 39 30 23 22 28 42 43 67 100 100 58 31 30 27 22 42 100 100 98 98 99 100 100 100 100 100 98 100 90 67 71 62 52 99 100
100 96 67 78 85 76 93 57 80 97 98 61 58 44 36 29 21 22 32 45 45 70 100 100 42 34 31 25 24 23 100 100 100 100 100 100 100 100 100 100 100 100 84 72 64 61 72 99 100
100 100 100 100 97 90 76 53 97 100 86 59 47 46 37 25 21 22 35 54 59 71 100 100 42 38 35 27 27 21 62 100 100 100 100 100 100 100 100 100 99 100 84 100 73 78 95 100 91
100 100 100 100 74 62 100 63 100 100 67 62 48 41 34 24 17 22 34 56 62 70 95 90 51 39 34 31 29 23 19 100 100 100 100 100 100 100 100 100 100 91 90 100 100 94 99 92 100
100 92 99 84 89 67 100 57 51 68 84 46 50 33 28 21 22 25 38 59 83 71 93 96 53 43 32 33 32 28 19 27 100 100 100 98 100 98 99 98 100 100 91 96 100 87 100 100 100
90 88 100 100 100 96 98 46 62 73 58 50 60 32 27 21 24 33 72 69 96 59 96 96 66 43 38 36 36 28 22 19 64 100 100 100 100 100 100 100 78 84 84 90 100 100 100 100 100
85 80 82 71 60 64 64 53 78 60 46 53 52 34 28 21 26 40 100 100 96 63 97 100 75 48 40 38 35 31 28 21 21 91 100 100 100 100 100 100 100 100 100 100 100 100 100 100 100
100 100 100 93 65 60 69 70 82 58 50 51 46 30 25 22 28 52 100 100 96 65 100 100 83 41 42 37 40 38 34 23 28 34 93 100 100 100 100 100 100 100 100 100 100 100 100 100 100
100 100 98 85 75 68 64 58 56 56 42 36 35 27 22 22 35 71 100 100 97 62 85 100 80 39 47 43 40 41 36 30 56 74 73 100 100 100 100 100 100 100 100 100 100 100 100 100 100
96 94 91 90 70 57 47 50 53 48 40 40 32 26 22 32 50 81 99 100 100 92 68 96 96 49 61 54 47 40 39 39 35 100 90 76 96 100 100 100 100 100 100 100 100 100 100 100 100
96 85 70 68 67 60 40 42 46 50 31 31 24 26 33 46 50 76 100 100 99 81 82 73 69 62 66 61 54 43 36 39 37 62 100 96 77 64 100 100 100 100 100 100 100 100 96 88 100
Wind_Speed
49 48 48 48 47 46 44 46 46 50 50 51 51 49 46 48 48 47 42 40 42 44 46 49 53 57 59 61 63 68 71 75 78 80 79 80 83 86 88 86 87 89 87 87 89 88 87 88 87
48 49 47 46 48 47 45 47 48 50 52 53 53 53 51 52 53 53 52 45 47 47 46 46 47 49 51 52 55 60 64 66 70 72 73 72 74 75 74 77 78 77 78 80 80 82 79 78 80
51 51 51 48 45 47 49 50 52 55 56 54 53 55 56 55 54 56 56 54 51 48 46 45 45 46 49 48 46 50 56 59 61 62 63 60 60 62 60 63 66 70 69 70 71 72 72 69 69
51 50 48 50 50 52 52 55 56 55 55 59 58 56 58 56 53 50 54 54 49 47 44 40 41 43 44 43 44 46 49 49 49 51 53 51 50 53 54 56 58 63 64 61 59 60 57 56 57
50 50 52 55 54 56 55 54 55 52 52 53 54 53 50 51 47 49 50 50 45 47 43 40 38 39 40 39 40 41 39 34 36 33 33 36 34 29 28 29 36 48 53 53 51 46 44 46 48
50 50 54 56 59 57 55 56 54 50 50 51 52 52 46 44 42 44 50 51 48 49 44 36 35 36 36 35 35 33 22 22 20 23 16 31 29 33 26 7 17 34 41 42 39 34 32 31 32
52 50 52 59 62 61 58 53 53 51 52 51 48 50 49 46 37 38 47 51 46 44 40 38 37 37 35 34 31 28 26 26 32 34 40 40 27 17 17 9 11 17 29 30 27 20 24 26 22
56 53 53 59 63 64 59 57 58 52 50 49 46 49 50 47 38 37 41 47 45 38 39 37 36 37 34 27 30 30 25 42 33 41 44 41 35 30 19 13 11 17 21 23 19 19 16 17 20
57 51 52 61 63 64 64 61 58 58 52 55 52 53 42 43 43 38 38 46 46 40 39 37 33 37 35 31 32 30 44 47 38 41 43 32 30 28 22 19 14 17 16 19 13 13 13 18 23
56 53 56 63 63 65 63 62 64 57 55 50 52 55 44 36 42 45 40 44 47 43 38 35 34 35 32 29 28 31 57 52 45 40 40 34 29 27 21 17 19 17 18 11 15 13 13 18 23
57 57 63 65 65 63 64 66 65 62 62 55 54 53 49 38 40 44 44 45 44 46 39 34 33 36 30 23 25 27 58 59 45 42 42 35 27 25 22 21 16 14 8 7 14 13 11 17 22
58 63 66 63 61 61 63 68 68 66 65 63 63 58 53 46 46 44 44 50 46 45 39 31 34 34 29 24 22 25 61 61 56 39 40 36 30 27 23 22 15 14 7 9 13 13 15 22 28
64 68 62 59 60 63 68 65 68 67 73 69 73 64 65 62 49 47 44 46 47 44 42 32 33 32 29 30 20 25 62 67 55 38 39 39 34 33 24 17 15 12 5 6 12 14 13 14 26
71 60 59 60 64 66 68 67 66 71 75 75 77 71 71 68 60 39 51 49 43 44 39 35 33 31 28 29 21 18 55 69 60 36 36 37 37 32 29 24 15 8 5 4 8 13 19 16 26
67 63 65 69 69 67 69 66 70 73 77 77 75 72 76 77 66 42 48 51 45 42 37 35 31 31 26 25 24 19 33 61 70 59 41 30 29 33 31 26 21 14 9 6 8 12 20 14 25
73 75 67 69 68 69 76 59 73 79 78 75 74 73 77 78 57 44 45 53 47 39 40 37 32 29 26 21 18 22 28 59 72 69 48 40 32 32 36 29 31 20 17 15 10 11 19 17 26
73 70 71 71 75 77 79 67 76 78 79 77 76 75 71 64 53 40 41 46 46 36 40 37 33 27 24 20 19 21 26 30 62 67 62 62 47 49 49 48 36 26 22 19 15 14 14 15 19
85 78 73 73 80 82 74 73 76 79 79 78 75 78 76 63 49 37 35 45 46 37 39 39 32 26 22 22 18 17 25 24 43 54 63 45 46 50 54 53 46 34 27 20 20 18 19 20 22
80 80 76 78 81 79 77 75 76 81 79 78 78 79 75 56 42 37 37 47 44 38 40 36 29 24 21 21 18 17 28 28 29 31 35 29 38 45 48 59 44 39 35 28 21 23 21 24 26
76 79 82 81 82 86 81 79 79 80 80 81 82 75 64 52 41 38 40 47 44 39 37 32 25 21 20 19 20 15 32 33 36 33 33 29 35 40 46 47 47 46 40 32 28 28 28 29 28
82 84 85 83 87 86 82 77 78 76 79 87 83 67 59 50 40 39 46 46 42 40 34 29 22 19 19 21 19 16 30 40 38 40 38 43 44 44 45 51 51 45 39 38 32 31 34 29 29
84 84 87 87 87 86 88 81 71 78 86 82 74 64 54 48 40 43 49 45 44 39 34 28 23 20 22 24 22 17 24 45 45 45 48 49 53 56 53 52 51 47 39 39 36 35 32 32 39
79 87 85 86 88 88 78 84 75 83 85 83 74 62 51 44 37 45 49 48 41 37 35 27 23 19 20 23 23 19 18 44 54 52 53 54 52 59 57 55 57 46 42 43 41 41 46 44 46
90 91 90 91 87 88 79 91 82 86 88 81 74 53 44 40 39 50 47 45 40 37 34 27 22 19 20 23 24 21 20 29 55 59 60 59 58 57 56 57 55 54 50 48 50 49 48 48 52
91 88 89 91 93 92 86 94 88 82 84 68 62 46 42 42 46 48 44 48 44 39 34 30 24 17 19 21 22 21 21 20 48 62 61 64 64 62 56 54 55 54 50 50 50 51 53 55 56
95 93 96 97 95 94 92 87 83 83 69 56 51 42 43 47 49 51 51 51 48 38 34 32 26 19 17 19 22 18 20 20 22 58 60 63 62 64 63 62 58 52 52 54 54 57 55 56 51
92 94 93 96 97 96 89 86 82 79 68 56 49 37 45 51 51 51 56 54 49 41 37 36 28 20 17 19 20 18 19 17 15 36 53 51 59 65 66 66 61 60 60 57 58 59 56 53 50
93 96 100 102 101 97 89 86 85 78 56 41 41 37 48 52 57 56 59 55 49 43 39 37 30 21 21 18 22 18 15 14 11 16 44 45 42 46 49 54 55 54 52 51 53 54 54 55 54
103 101 99 99 102 96 86 79 80 61 50 42 41 40 50 60 61 57 53 51 48 43 42 38 29 25 21 21 21 22 16 12 10 11 29 45 43 41 41 44 46 48 46 49 53 51 52 56 55
101 101 97 95 98 93 71 62 62 48 47 40 34 44 57 64 64 56 51 54 52 46 45 42 34 28 24 21 22 22 24 13 13 11 17 34 44 42 42 39 44 46 48 49 50 56 56 53 52
Wind_Direction
287 287 285 287 290 289 290 294 294 295 297 298 298 298 299 300 297 296 285 283 287 284 282 278 275 273 269 268 267 265 263 262 260 258 255 252 250 250 251 255 256 253 252 253 252 251 252 254 254
289 289 288 287 291 292 294 295 295 297 297 295 298 299 298 296 295 297 299 290 294 289 282 279 278 276 274 271 270 268 265 262 261 261 260 259 257 255 253 253 255 256 255 255 254 253 253 253 254
284 284 283 286 288 292 296 298 298 298 296 293 291 291 290 290 294 297 296 294 294 292 284 280 279 280 277 275 274 269 266 264 264 262 260 257 254 253 249 248 248 250 251 251 252 251 252 253 254
282 279 281 285 289 296 298 301 303 300 296 292 288 286 287 287 289 291 290 295 294 293 292 292 290 286 283 277 272 269 266 265 264 260 259 253 249 247 248 247 248 248 246 247 248 249 252 254 254
278 276 282 284 289 296 300 304 307 302 300 301 298 288 286 287 290 293 288 289 290 289 290 288 292 291 288 284 278 273 271 269 261 260 247 236 225 216 218 229 238 239 242 244 246 244 249 250 251
278 283 290 292 295 300 301 306 309 309 308 305 301 296 288 282 285 287 283 281 284 288 292 298 301 293 289 283 277 275 266 263 220 191 236 188 187 192 193 166 228 233 236 237 235 236 241 246 249
284 289 291 294 295 302 305 309 313 312 313 307 309 297 289 281 275 277 277 275 280 286 295 299 301 300 300 298 280 273 277 200 178 187 184 183 177 182 171 182 226 228 226 221 218 228 245 244 240
285 288 292 291 295 301 303 310 313 315 320 321 316 311 297 289 281 273 276 273 278 279 288 295 303 305 306 299 291 291 257 182 188 192 187 182 171 166 160 178 206 219 230 213 214 219 252 250 232
283 285 289 290 298 299 305 308 310 314 317 319 320 322 307 291 285 280 271 274 275 275 283 295 308 310 308 306 299 287 187 184 195 197 203 178 163 159 150 166 174 162 196 201 207 234 251 253 219
280 284 289 293 296 298 303 306 306 313 314 314 319 322 315 297 287 286 268 270 271 274 280 291 301 308 303 304 304 286 186 188 190 203 194 188 176 174 164 158 149 178 189 197 230 228 276 235 231
277 283 287 291 294 296 300 304 308 308 314 315 320 319 327 311 302 297 276 267 268 272 277 285 296 305 300 299 302 277 195 191 192 212 206 202 192 169 166 170 169 178 162 198 240 232 242 212 211
279 281 282 290 292 292 298 304 306 307 311 313 317 317 321 309 295 288 278 267 265 266 271 281 291 302 305 306 302 250 202 196 198 209 204 204 199 191 182 177 168 176 149 182 238 247 227 210 215
277 277 285 290 290 291 298 301 302 307 308 312 314 316 315 316 306 279 270 268 261 262 267 276 287 299 309 304 301 242 207 202 201 202 212 208 206 209 206 196 189 158 207 190 241 261 272 242 234
273 279 283 283 285 287 296 298 297 301 303 309 310 311 315 312 310 280 263 255 257 257 262 270 279 296 306 305 306 254 214 206 207 204 208 207 219 221 202 198 193 165 184 198 243 266 265 284 241
270 278 277 279 280 288 289 293 294 300 304 305 306 307 311 313 309 281 258 253 249 248 254 265 275 290 296 305 306 258 238 219 213 215 210 212 219 208 199 198 203 218 202 228 277 268 261 294 253
271 274 279 278 283 282 288 289 290 295 301 302 304 304 312 311 296 283 259 251 244 240 247 261 268 285 293 309 292 249 249 221 215 220 209 222 223 211 218 205 211 220 238 241 256 284 276 279 270
268 271 272 279 279 280 286 286 288 297 299 299 300 302 313 309 290 273 259 247 238 229 242 255 262 281 294 308 302 233 240 222 225 225 228 232 241 240 232 222 217 226 238 246 252 255 256 287 275
266 271 276 273 277 281 286 287 289 294 295 294 299 303 309 299 285 263 246 239 231 223 238 251 260 274 295 301 298 248 225 217 223 228 225 235 224 229 215 217 219 229 234 236 246 248 263 286 298
269 269 269 278 278 278 285 288 289 293 291 290 296 305 307 291 277 259 236 231 220 220 235 248 256 272 290 296 303 248 215 213 194 208 211 205 198 203 215 222 226 229 233 238 240 258 273 286 291
268 268 271 275 274 279 283 286 286 288 287 290 296 307 303 287 271 254 227 222 215 216 231 241 252 267 282 293 303 259 210 210 201 198 195 195 205 206 208 221 229 230 230 238 252 263 268 278 276
266 267 271 271 273 279 280 283 282 282 283 291 298 307 299 280 266 243 220 219 213 213 227 236 245 259 280 292 296 271 216 208 209 203 199 199 199 205 213 223 226 230 235 242 249 257 263 269 276
267 270 269 270 271 273 279 282 278 279 288 293 302 305 290 274 256 231 215 220 212 212 225 229 242 256 270 282 289 266 232 209 205 213 206 204 210 210 213 215 225 226 234 238 253 263 260 267 277
264 266 271 271 271 274 272 280 281 283 290 294 304 301 282 270 253 227 216 222 211 212 218 223 238 251 269 278 286 269 236 213 211 210 215 212 213 213 219 227 230 233 238 243 252 263 262 270 277
267 270 271 270 270 272 271 280 284 286 287 294 298 287 274 259 241 219 216 222 212 211 217 222 234 249 264 269 277 281 246 230 214 215 214 218 221 224 228 229 230 235 244 251 254 260 265 268 273
264 264 265 265 268 271 272 278 283 284 289 295 296 281 265 249 232 209 217 219 211 209 213 221 233 244 261 268 273 282 265 257 223 214 218 217 222 223 225 234 239 244 245 253 254 258 263 267 267
264 264 266 268 269 271 276 281 281 284 290 294 291 276 256 239 225 204 213 215 213 204 210 221 231 241 261 264 274 278 270 271 244 218 216 220 223 227 231 233 237 240 243 245 252 256 261 262 261
265 266 267 269 271 275 277 280 283 288 289 287 283 264 244 231 220 206 213 214 210 204 211 219 230 242 256 263 275 296 278 281 276 220 217 217 222 227 231 235 236 240 244 247 252 256 258 256 258
260 262 266 269 271 273 274 278 282 284 284 273 268 247 234 223 212 208 217 211 213 209 210 219 226 241 246 263 265 283 275 281 292 240 210 211 219 221 229 232 235 238 241 246 250 250 251 255 258
260 262 264 266 270 273 277 281 283 285 270 264 256 235 221 216 210 211 217 215 211 208 217 218 224 236 239 255 265 273 288 286 280 247 224 215 218 226 229 228 233 237 240 241 246 251 254 261 264
260 262 265 267 270 275 278 281 279 272 261 260 242 222 211 214 211 210 215 211 210 208 215 218 221 230 233 248 262 267 279 291 292 265 227 228 221 225 225 231 236 243 242 250 250 252 255 262 268